This is the latest recevied weather packets stored in our database for station/object 9A7DI-13. If no packets are shown the sender has not sent any weather packets the latest 10 day(s).
| Time | Temp. | Humidity | Pressure | Rain* | Wind** | Luminosity | Snow |
|---|---|---|---|---|---|---|---|
| 1777857432 | 8.89° C | 63% | 1026.9 hPa | - | - | - | - |
| 1777856832 | 8.89° C | 63% | 1026.9 hPa | - | - | - | - |
| 1777856232 | 8.33° C | 64% | 1026.8 hPa | - | - | - | - |
| 1777855632 | 8.89° C | 63% | 1026.8 hPa | - | - | - | - |
| 1777855032 | 9.44° C | 62% | 1026.8 hPa | - | - | - | - |
| 1777854432 | 8.89° C | 63% | 1026.9 hPa | - | - | - | - |
| 1777853832 | 8.89° C | 63% | 1026.8 hPa | - | - | - | - |
| 1777853232 | 8.89° C | 64% | 1026.9 hPa | - | - | - | - |
| 1777852632 | 9.44° C | 64% | 1026.9 hPa | - | - | - | - |
| 1777852032 | 8.89° C | 65% | 1027 hPa | - | - | - | - |
| 1777851432 | 9.44° C | 64% | 1027.1 hPa | - | - | - | - |
| 1777850832 | 9.44° C | 63% | 1027.1 hPa | - | - | - | - |
| 1777850232 | 10° C | 61% | 1027.1 hPa | - | - | - | - |
| 1777849632 | 10° C | 62% | 1027 hPa | - | - | - | - |
| 1777849032 | 10.56° C | 61% | 1027 hPa | - | - | - | - |
| 1777848432 | 10° C | 64% | 1027 hPa | - | - | - | - |
| 1777847832 | 10.56° C | 63% | 1027.2 hPa | - | - | - | - |
| 1777847232 | 10° C | 64% | 1027.2 hPa | - | - | - | - |
| 1777846632 | 10° C | 66% | 1027.2 hPa | - | - | - | - |
| 1777846032 | 10° C | 65% | 1027.3 hPa | - | - | - | - |
| 1777845432 | 10.56° C | 64% | 1027.3 hPa | - | - | - | - |
| 1777844832 | 10° C | 64% | 1027.2 hPa | - | - | - | - |
| 1777844232 | 11.11° C | 61% | 1027.2 hPa | - | - | - | - |
| 1777843632 | 11.11° C | 62% | 1027.1 hPa | - | - | - | - |
| 1777843032 | 11.11° C | 65% | 1027.2 hPa | - | - | - | - |
* Rain since midnight (hover to see other rain measurements)
** Current wind speed in m/s (hover to see current wind gust speed)